When you browse on this site, cookies collect data to enhance your experience and personalize the content and advertising you see.
Visit our Privacy Policy to learn more. By continuing to use the site, you agree to this use of cookies and data.
  • In Czech Republic
  • List of Countries
  • For 7 days
  • Water Temperature
  • Satellite Maps
  • Weather Map
  • Weather Widgets
  • user-avatar
    Login

    Hourly Weather Ottawa

    Today, 18 April, Thursday

    Time Temperature Precipitation Wind Pressure Humidity
    00:00 +5°C° 0 mm 3 mps 754 mmHg 62%
    01:00 +4°C° 0 mm 3 mps 753 mmHg 64%
    02:00 +5°C° 0.7 mm 4 mps 752 mmHg 69%
    03:00 +5°C° 0.7 mm 4 mps 751 mmHg 74%
    04:00 +5°C° 0.7 mm 4 mps 750 mmHg 79%
    05:00 +6°C° 0.6 mm 4 mps 750 mmHg 81%
    06:00 +7°C° 0.6 mm 4 mps 749 mmHg 84%
    07:00 +7°C° 0 mm 5 mps 749 mmHg 90%
    08:00 +9°C° 0 mm 6 mps 748 mmHg 84%
    09:00 +11°C° 0 mm 7 mps 748 mmHg 78%
    10:00 +12°C° 0 mm 7 mps 747 mmHg 72%
    11:00 +15°C° 0 mm 8 mps 747 mmHg 70%
    12:00 +16°C° 0 mm 8 mps 746 mmHg 69%
    13:00 +17°C° 0 mm 8 mps 745 mmHg 67%
    14:00 +16°C° 0.4 mm 8 mps 744 mmHg 72%
    15:00 +16°C° 0.4 mm 7 mps 743 mmHg 76%
    16:00 +15°C° 0.4 mm 7 mps 742 mmHg 80%
    17:00 +16°C° 0.2 mm 7 mps 742 mmHg 80%
    18:00 +16°C° 0.2 mm 7 mps 741 mmHg 80%
    19:00 +17°C° 0.2 mm 7 mps 741 mmHg 80%
    20:00 +17°C° 0.5 mm 7 mps 741 mmHg 81%
    21:00 +17°C° 0.5 mm 7 mps 741 mmHg 83%
    22:00 +17°C° 0.5 mm 8 mps 741 mmHg 84%
    23:00 +16°C° 0.5 mm 7 mps 741 mmHg 86%

    Tomorrow, 19 April, Friday

    Time Temperature Precipitation Wind Pressure Humidity
    00:00 +16°C° 0.5 mm 6 mps 741 mmHg 88%
    01:00 +16°C° 0.5 mm 6 mps 741 mmHg 90%
    02:00 +15°C° 1.1 mm 5 mps 742 mmHg 91%
    03:00 +14°C° 1.1 mm 5 mps 742 mmHg 93%
    04:00 +13°C° 1.1 mm 4 mps 742 mmHg 94%
    05:00 +12°C° 0.9 mm 4 mps 743 mmHg 93%
    06:00 +10°C° 0.9 mm 3 mps 743 mmHg 91%
    07:00 +9°C° 0.9 mm 3 mps 744 mmHg 90%
    08:00 +8°C° 0.5 mm 3 mps 744 mmHg 90%
    09:00 +8°C° 0.5 mm 3 mps 744 mmHg 90%
    10:00 +7°C° 0.5 mm 3 mps 745 mmHg 90%
    11:00 +6°C° 0.8 mm 4 mps 745 mmHg 90%
    12:00 +6°C° 0.8 mm 4 mps 745 mmHg 89%
    13:00 +6°C° 0.8 mm 4 mps 745 mmHg 89%
    14:00 +6°C° 1.8 mm 5 mps 745 mmHg 90%
    15:00 +5°C° 1.8 mm 5 mps 745 mmHg 91%
    16:00 +5°C° 1.8 mm 5 mps 745 mmHg 92%
    17:00 +5°C° 1.2 mm 5 mps 745 mmHg 92%
    18:00 +5°C° 1.2 mm 5 mps 745 mmHg 91%
    19:00 +5°C° 1.2 mm 5 mps 745 mmHg 91%
    20:00 +5°C° 0.7 mm 5 mps 745 mmHg 91%
    21:00 +4°C° 0.7 mm 6 mps 746 mmHg 90%
    22:00 +4°C° 0.7 mm 6 mps 746 mmHg 90%
    23:00 +5°C° 1.1 mm 5 mps 746 mmHg 90%

    Day after tomorrow, 20 April, Saturday

    Time Temperature Precipitation Wind Pressure Humidity
    00:00 +5°C° 1.1 mm 5 mps 746 mmHg 91%
    01:00 +5°C° 1.1 mm 5 mps 746 mmHg 91%
    02:00 +5°C° 0.5 mm 4 mps 746 mmHg 92%
    03:00 +5°C° 0.5 mm 3 mps 746 mmHg 92%
    04:00 +5°C° 0.5 mm 3 mps 746 mmHg 92%
    05:00 +5°C° 0.5 mm 3 mps 747 mmHg 92%
    06:00 +5°C° 0.5 mm 4 mps 747 mmHg 92%
    07:00 +5°C° 0.5 mm 4 mps 748 mmHg 92%
    08:00 +5°C° 0.4 mm 5 mps 747 mmHg 92%
    09:00 +6°C° 0.4 mm 5 mps 747 mmHg 92%
    10:00 +6°C° 0.4 mm 5 mps 747 mmHg 92%
    11:00 +5°C° 0.3 mm 6 mps 746 mmHg 92%
    12:00 +5°C° 0.3 mm 7 mps 745 mmHg 92%
    13:00 +6°C° 0.3 mm 7 mps 745 mmHg 92%
    14:00 +8°C° 0.2 mm 7 mps 744 mmHg 92%
    15:00 +8°C° 0.2 mm 6 mps 744 mmHg 92%
    16:00 +9°C° 0.2 mm 6 mps 743 mmHg 93%
    17:00 +9°C° 0.1 mm 6 mps 743 mmHg 93%
    18:00 +9°C° 0.1 mm 5 mps 744 mmHg 94%
    19:00 +9°C° 0.1 mm 5 mps 744 mmHg 94%
    20:00 +10°C° 0 mm 4 mps 745 mmHg 93%
    21:00 +10°C° 0 mm 3 mps 745 mmHg 92%
    22:00 +10°C° 0 mm 3 mps 746 mmHg 90%
    23:00 +9°C° 0 mm 3 mps 747 mmHg 91%

    21 April, Sunday

    Time Temperature Precipitation Wind Pressure Humidity
    00:00 +9°C° 0 mm 3 mps 747 mmHg 91%
    01:00 +8°C° 0 mm 3 mps 747 mmHg 91%
    02:00 +8°C° 0 mm 3 mps 748 mmHg 92%
    03:00 +8°C° 0 mm 2 mps 748 mmHg 92%
    04:00 +7°C° 0 mm 2 mps 748 mmHg 93%
    05:00 +8°C° 0 mm 2 mps 749 mmHg 91%
    06:00 +9°C° 0 mm 2 mps 749 mmHg 90%
    07:00 +10°C° 0 mm 1 mps 750 mmHg 88%
    08:00 +12°C° 0 mm 2 mps 750 mmHg 82%
    09:00 +13°C° 0 mm 3 mps 750 mmHg 75%
    10:00 +15°C° 0 mm 4 mps 750 mmHg 69%
    11:00 +17°C° 0 mm 4 mps 750 mmHg 63%
    12:00 +18°C° 0 mm 4 mps 751 mmHg 58%
    13:00 +19°C° 0 mm 4 mps 751 mmHg 52%
    14:00 +19°C° 0 mm 4 mps 751 mmHg 52%
    15:00 +20°C° 0 mm 4 mps 751 mmHg 51%
    16:00 +20°C° 0 mm 4 mps 751 mmHg 50%
    17:00 +18°C° 0 mm 3 mps 751 mmHg 57%
    18:00 +16°C° 0 mm 3 mps 752 mmHg 64%
    19:00 +14°C° 0 mm 2 mps 752 mmHg 70%
    20:00 +13°C° 0 mm 2 mps 753 mmHg 74%
    21:00 +12°C° 0 mm 2 mps 754 mmHg 77%
    22:00 +10°C° 0 mm 2 mps 754 mmHg 81%
    23:00 +10°C° 0 mm 2 mps 754 mmHg 84%

    22 April, Monday

    Time Temperature Precipitation Wind Pressure Humidity
    00:00 +9°C° 0 mm 2 mps 754 mmHg 87%
    01:00 +8°C° 0 mm 2 mps 754 mmHg 90%
    02:00 +8°C° 0 mm 2 mps 755 mmHg 90%
    03:00 +9°C° 0 mm 1 mps 755 mmHg 91%
    04:00 +9°C° 0 mm 1 mps 755 mmHg 92%
    05:00 +9°C° 0 mm 1 mps 755 mmHg 89%
    06:00 +10°C° 0 mm 1 mps 756 mmHg 86%
    07:00 +11°C° 0 mm 1 mps 756 mmHg 84%
    08:00 +13°C° 0 mm 1 mps 756 mmHg 77%
    09:00 +16°C° 0 mm 1 mps 756 mmHg 69%
    10:00 +18°C° 0 mm 2 mps 756 mmHg 62%
    11:00 +19°C° 0 mm 2 mps 755 mmHg 58%
    12:00 +20°C° 0 mm 2 mps 755 mmHg 54%
    13:00 +21°C° 0 mm 2 mps 755 mmHg 49%
    14:00 +20°C° 0.1 mm 2 mps 755 mmHg 56%
    15:00 +19°C° 0.1 mm 3 mps 755 mmHg 63%
    16:00 +17°C° 0.1 mm 3 mps 755 mmHg 70%
    17:00 +16°C° 0.2 mm 3 mps 755 mmHg 77%
    18:00 +13°C° 0.2 mm 3 mps 755 mmHg 84%
    19:00 +12°C° 0.2 mm 3 mps 755 mmHg 90%
    20:00 +11°C° 0.3 mm 3 mps 755 mmHg 91%
    21:00 +10°C° 0.3 mm 3 mps 756 mmHg 92%
    22:00 +9°C° 0.3 mm 3 mps 756 mmHg 93%
    23:00 +7°C° 0.1 mm 4 mps 756 mmHg 92%

    23 April, Tuesday

    Time Temperature Precipitation Wind Pressure Humidity
    00:00 +7°C° 0.1 mm 4 mps 756 mmHg 91%
    01:00 +6°C° 0.1 mm 4 mps 756 mmHg 90%
    02:00 +6°C° 0 mm 4 mps 756 mmHg 90%
    03:00 +5°C° 0 mm 4 mps 757 mmHg 89%
    04:00 +5°C° 0 mm 4 mps 757 mmHg 89%
    05:00 +5°C° 0 mm 4 mps 758 mmHg 84%
    06:00 +5°C° 0 mm 5 mps 758 mmHg 79%
    07:00 +5°C° 0 mm 5 mps 759 mmHg 74%
    08:00 +7°C° 0 mm 5 mps 759 mmHg 65%
    09:00 +8°C° 0 mm 5 mps 759 mmHg 56%
    10:00 +9°C° 0 mm 5 mps 759 mmHg 47%
    11:00 +10°C° 0 mm 5 mps 759 mmHg 43%
    12:00 +13°C° 0 mm 5 mps 759 mmHg 40%
    13:00 +14°C° 0 mm 5 mps 758 mmHg 36%
    14:00 +14°C° 0 mm 5 mps 758 mmHg 36%
    15:00 +14°C° 0 mm 5 mps 758 mmHg 35%
    16:00 +14°C° 0 mm 5 mps 758 mmHg 34%
    17:00 +12°C° 0 mm 4 mps 758 mmHg 38%
    18:00 +10°C° 0 mm 4 mps 759 mmHg 42%
    19:00 +8°C° 0 mm 3 mps 759 mmHg 46%
    20:00 +7°C° 0 mm 3 mps 760 mmHg 47%
    21:00 +5°C° 0 mm 3 mps 760 mmHg 47%
    22:00 +4°C° 0 mm 3 mps 760 mmHg 48%
    23:00 +3°C° 0 mm 3 mps 760 mmHg 50%
    Show more